| time (UTC) | temp F | wind direction | speed MPH | gust MPH | rain 1hr in | rain 24hr in | rain mn in | humidity % | barometer mb |
| 20260502123022 | 40 | 295 | 3.0 | 0.0 | 0.00 | 0.00 | 0.31 | 88 | 1002.9 |
| 20260502121520 | 40 | 279 | 3.0 | 0.0 | 0.00 | 0.00 | 0.31 | 88 | 1002.8 |
| 20260502114518 | 40 | 273 | 3.0 | 0.0 | 0.00 | 0.00 | 0.31 | 90 | 1002.6 |
| 20260502113019 | 39 | 230 | 3.0 | 0.0 | 0.00 | 0.00 | 0.31 | 89 | 1002.5 |
| 20260502111515 | 39 | 265 | 3.0 | 0.0 | 0.00 | 0.00 | 0.31 | 90 | 1002.3 |
| 20260502110015 | 39 | 240 | 5.0 | 0.0 | 0.00 | 0.00 | 0.31 | 90 | 1002.2 |
| 20260502104513 | 39 | 279 | 4.0 | 0.0 | 0.00 | 0.00 | 0.30 | 91 | 1002.0 |
| 20260502103012 | 39 | 287 | 6.0 | 0.0 | 0.00 | 0.00 | 0.30 | 90 | 1001.8 |
| 20260502101509 | 40 | 292 | 8.0 | 0.0 | 0.00 | 0.00 | 0.30 | 90 | 1001.6 |
| 20260502091506 | 38 | 227 | 9.0 | 0.0 | 0.00 | 0.00 | 0.28 | 88 | 1001.1 |
| 20260502070101 | 39 | 248 | 7.0 | 0.0 | 0.00 | 0.00 | 0.20 | 89 | 999.5 |
| 20260502064558 | 38 | 278 | 9.0 | 0.0 | 0.00 | 0.00 | 0.20 | 90 | 999.4 |
| 20260502063058 | 39 | 265 | 11.0 | 0.0 | 0.00 | 0.00 | 0.19 | 88 | 999.5 |
| 20260502061554 | 39 | 265 | 12.0 | 0.0 | 0.00 | 0.00 | 0.17 | 81 | 999.2 |
| 20260502060100 | 43 | 261 | 10.0 | 0.0 | 0.00 | 0.00 | 0.16 | 75 | 998.4 |
| 20260502054555 | 43 | 228 | 10.0 | 0.0 | 0.00 | 0.00 | 0.16 | 73 | 998.5 |
| 20260502053051 | 43 | 228 | 11.0 | 0.0 | 0.00 | 0.00 | 0.16 | 75 | 998.7 |
| 20260502051550 | 43 | 281 | 13.0 | 0.0 | 0.00 | 0.00 | 0.16 | 76 | 998.6 |
| 20260502050049 | 43 | 253 | 14.0 | 0.0 | 0.00 | 0.00 | 0.16 | 77 | 998.5 |
| 20260502044552 | 42 | 258 | 11.0 | 0.0 | 0.00 | 0.00 | 0.16 | 79 | 998.5 |
| 20260502043051 | 42 | 298 | 10.0 | 0.0 | 0.00 | 0.00 | 0.16 | 81 | 998.5 |
| 20260502041548 | 41 | 284 | 6.0 | 0.0 | 0.00 | 0.00 | 0.16 | 88 | 998.2 |
| 20260502040042 | 41 | 237 | 11.0 | 0.0 | 0.00 | 0.00 | 0.16 | 89 | 998.1 |
| 20260502034540 | 41 | 260 | 10.0 | 0.0 | 0.00 | 0.00 | 0.15 | 89 | 998.0 |
| 20260502033040 | 43 | 286 | 10.0 | 0.0 | 0.00 | 0.00 | 0.14 | 90 | 997.9 |
| 20260502031532 | 43 | 202 | 4.0 | 0.0 | 0.00 | 0.00 | 0.12 | 90 | 997.2 |
| 20260502030032 | 43 | 184 | 4.0 | 0.0 | 0.00 | 0.00 | 0.11 | 89 | 997.3 |
| 20260502024529 | 44 | 194 | 4.0 | 0.0 | 0.00 | 0.00 | 0.10 | 89 | 997.5 |
| 20260502023027 | 44 | 253 | 5.0 | 0.0 | 0.00 | 0.00 | 0.09 | 89 | 998.0 |
| 20260502021524 | 44 | 215 | 6.0 | 0.0 | 0.00 | 0.00 | 0.09 | 88 | 998.4 |
| 20260502020022 | 44 | 239 | 8.0 | 0.0 | 0.00 | 0.00 | 0.08 | 88 | 998.6 |
| 20260502014544 | 45 | 244 | 12.0 | 0.0 | 0.00 | 0.00 | 0.06 | 88 | 998.9 |
| 20260502013019 | 44 | 263 | 8.0 | 0.0 | 0.00 | 0.00 | 0.06 | 88 | 999.0 |
| 20260502011517 | 45 | 233 | 12.0 | 0.0 | 0.00 | 0.00 | 0.04 | 87 | 999.2 |
| 20260502010015 | 46 | 275 | 13.0 | 0.0 | 0.00 | 0.00 | 0.04 | 85 | 999.0 |
| 20260502004512 | 46 | 240 | 11.0 | 0.0 | 0.00 | 0.00 | 0.04 | 89 | 999.1 |
| 20260502003012 | 46 | 267 | 10.0 | 0.0 | 0.00 | 0.00 | 0.03 | 91 | 999.2 |
| 20260502001515 | 45 | 252 | 7.0 | 0.0 | 0.00 | 0.00 | 0.03 | 93 | 999.4 |
| 20260502000012 | 45 | 227 | 3.0 | 0.0 | 0.00 | 0.00 | 0.02 | 94 | 999.7 |
| 20260501234607 | 44 | 195 | 0.0 | 0.0 | 0.00 | 0.00 | 0.02 | 94 | 999.7 |
| 20260501233102 | 44 | 194 | 0.0 | 0.0 | 0.00 | 0.00 | 0.01 | 93 | 999.9 |
| 20260501231557 | 44 | 194 | 0.0 | 0.0 | 0.00 | 0.00 | 0.01 | 93 | 1000.1 |
| 20260501230056 | 44 | 194 | 0.0 | 0.0 | 0.00 | 0.00 | 0.01 | 93 | 1000.4 |
| 20260501224553 | 45 | 194 | 0.0 | 0.0 | 0.00 | 0.00 | 0.01 | 93 | 1000.6 |
| 20260501223053 | 45 | 266 | 0.0 | 0.0 | 0.00 | 0.00 | 0.00 | 93 | 1001.0 |
| 20260501221550 | 45 | 267 | 1.0 | 0.0 | 0.00 | 0.00 | 0.00 | 93 | 1001.4 |
| 20260501220055 | 45 | 272 | 1.0 | 0.0 | 0.00 | 0.00 | 0.00 | 93 | 1001.5 |
| 20260501214547 | 45 | 265 | 2.0 | 0.0 | 0.00 | 0.00 | 0.28 | 94 | 1001.5 |
| 20260501213046 | 45 | 254 | 4.0 | 0.0 | 0.00 | 0.00 | 0.28 | 94 | 1001.9 |
| 20260501211544 | 44 | 258 | 2.0 | 0.0 | 0.00 | 0.00 | 0.28 | 94 | 1002.1 |
| 20260501210041 | 44 | 41 | 0.0 | 0.0 | 0.00 | 0.00 | 0.28 | 95 | 1002.3 |
| 20260501204540 | 44 | 42 | 0.0 | 0.0 | 0.00 | 0.00 | 0.28 | 95 | 1002.8 |
| 20260501203038 | 44 | 42 | 0.0 | 0.0 | 0.00 | 0.00 | 0.28 | 94 | 1002.8 |
| 20260501201550 | 44 | 42 | 0.0 | 0.0 | 0.00 | 0.00 | 0.27 | 94 | 1003.0 |
| 20260501200034 | 45 | 279 | 0.0 | 0.0 | 0.00 | 0.00 | 0.27 | 94 | 1003.5 |
| 20260501194538 | 45 | 280 | 0.0 | 0.0 | 0.00 | 0.00 | 0.26 | 94 | 1003.7 |
| 20260501193035 | 45 | 281 | 0.0 | 0.0 | 0.00 | 0.00 | 0.26 | 94 | 1003.8 |
| 20260501191531 | 45 | 280 | 0.0 | 0.0 | 0.00 | 0.00 | 0.26 | 94 | 1003.8 |
| 20260501190032 | 45 | 281 | 0.0 | 0.0 | 0.00 | 0.00 | 0.26 | 94 | 1004.1 |
| 20260501184528 | 45 | 282 | 0.0 | 0.0 | 0.00 | 0.00 | 0.26 | 94 | 1004.3 |
| 20260501183039 | 45 | 284 | 0.0 | 0.0 | 0.00 | 0.00 | 0.26 | 94 | 1004.7 |
| 20260501181534 | 45 | 286 | 0.0 | 0.0 | 0.00 | 0.00 | 0.26 | 94 | 1004.7 |
| 20260501180032 | 45 | 288 | 0.0 | 0.0 | 0.00 | 0.00 | 0.26 | 94 | 1004.8 |
| 20260501174533 | 45 | 284 | 0.0 | 0.0 | 0.00 | 0.00 | 0.25 | 94 | 1005.0 |
| 20260501173022 | 45 | 284 | 1.0 | 0.0 | 0.00 | 0.00 | 0.25 | 94 | 1005.3 |
| 20260501171520 | 44 | 229 | 2.0 | 0.0 | 0.00 | 0.00 | 0.25 | 94 | 1005.7 |
| 20260501170018 | 44 | 283 | 3.0 | 0.0 | 0.00 | 0.00 | 0.24 | 94 | 1006.1 |
| 20260501164517 | 44 | 265 | 2.0 | 0.0 | 0.00 | 0.00 | 0.24 | 94 | 1006.2 |
| 20260501163014 | 44 | 231 | 3.0 | 0.0 | 0.00 | 0.00 | 0.22 | 94 | 1006.4 |
| 20260501161514 | 44 | 241 | 3.0 | 0.0 | 0.00 | 0.00 | 0.21 | 94 | 1006.9 |
| 20260501160017 | 44 | 248 | 4.0 | 0.0 | 0.00 | 0.00 | 0.20 | 94 | 1006.9 |
| 20260501154512 | 45 | 246 | 5.0 | 0.0 | 0.00 | 0.00 | 0.18 | 93 | 1007.0 |
| 20260501153009 | 45 | 243 | 6.0 | 0.0 | 0.00 | 0.00 | 0.17 | 93 | 1007.1 |
| 20260501151506 | 45 | 295 | 4.0 | 0.0 | 0.00 | 0.00 | 0.13 | 93 | 1007.3 |
| 20260501150009 | 46 | 266 | 5.0 | 0.0 | 0.00 | 0.00 | 0.12 | 93 | 1007.4 |